Change the Weather History Date:

Sunday, August 26, 2012

  Actual Average Record
Temperature  
Mean Temperature 76 °F -  
Max Temperature 87 °F 82 °F 99 °F (1955)
Min Temperature 65 °F 59 °F 45 °F (1964)
Cooling Degree Days 11    
Growing Degree Days 26 (Base 50)    
Moisture  
Dew Point 65 °F    
Average Humidity 74    
Maximum Humidity 91    
Minimum Humidity 47    
Precipitation  
Precipitation 0.00 in - - ()
Sea Level Pressure  
Sea Level Pressure 29.98 in    
Wind  
Wind Speed 3 mph (NNE)    
Max Wind Speed 7 mph    
Max Gust Speed -    
Visibility 6 miles    
Events      
Averages and records for this station are not official NWS values.
T = Trace of Precipitation, MM = Missing Value Source: NWS Daily Summary

Daily Weather History Graph

Daily Weather History Graph

Search for Another Location

Airport or City:

Trip Planner

Search our weather history database for the weather conditions in past years. The results will help you decide how hot, cold, wet, or windy it might be!

Date:

Astronomy

Aug. 26, 2012 Rise Set
Actual Time 6:36 AM CDT 7:59 PM CDT
Civil Twilight 6:07 AM CDT 8:27 PM CDT
Nautical Twilight 5:32 AM CDT 9:02 PM CDT
Astronomical Twilight 4:55 AM CDT 9:39 PM CDT
Moon 4:32 PM CDT (8/26) 1:15 AM CDT (8/26)
Length of Visible Light 14h 20m
Length of Day
13h 22m
Waxing Gibbous, 73% of the Moon is Illuminated
Aug 26
Waxing Gibbous
Aug 31
Full
Sep 8
Last Quarter
Sep 15
New
Sep 22
First Quarter

Hourly Weather History & Observations

Time (CDT) Temp. Heat Index Dew Point Humidity Pressure Visibility Wind Dir Wind Speed Gust Speed Precip Events Conditions
12:15 AM 69.1 °F - 65.5 °F 88% 29.94 in 3.0 mi ESE 3.5 mph - N/A   Clear
12:55 AM 68.9 °F - 65.3 °F 88% 29.93 in 4.0 mi ESE 5.8 mph - N/A   Clear
1:15 AM 69.1 °F - 65.1 °F 87% 29.93 in 5.0 mi ESE 5.8 mph - N/A   Clear
1:35 AM 69.1 °F - 65.1 °F 87% 29.93 in 4.0 mi East 3.5 mph - N/A   Clear
1:55 AM 68.9 °F - 64.9 °F 87% 29.92 in 4.0 mi Calm Calm - N/A   Clear
2:15 AM 68.5 °F - 64.9 °F 88% 29.92 in 3.0 mi Calm Calm - N/A   Scattered Clouds
2:35 AM 68.4 °F - 64.8 °F 88% 29.92 in 2.5 mi Calm Calm - N/A   Scattered Clouds
2:55 AM 68.2 °F - 64.9 °F 89% 29.92 in 1.5 mi Calm Calm - N/A   Mostly Cloudy
3:15 AM 68.0 °F - 64.8 °F 89% 29.92 in 1.8 mi Calm Calm - N/A   Mostly Cloudy
3:35 AM 68.0 °F - 64.6 °F 89% 29.92 in 1.8 mi Calm Calm - N/A   Mist
3:55 AM 67.6 °F - 64.4 °F 89% 29.93 in 1.8 mi Calm Calm - N/A   Mist
4:15 AM 66.9 °F - 63.7 °F 89% 29.92 in 1.0 mi Calm Calm - N/A   Mist
4:35 AM 66.6 °F - 63.5 °F 90% 29.94 in 1.0 mi Calm Calm - N/A   Mist
4:55 AM 65.8 °F - 62.8 °F 90% 29.94 in 0.8 mi Calm Calm - N/A   Mist
5:15 AM 66.2 °F - 63.0 °F 89% 29.95 in 1.0 mi Calm Calm - N/A   Mist
5:35 AM 66.4 °F - 63.5 °F 90% 29.95 in 1.0 mi North 3.5 mph - N/A   Overcast
5:55 AM 66.4 °F - 63.5 °F 90% 29.95 in 1.0 mi North 4.6 mph - N/A   Mostly Cloudy
6:15 AM 66.4 °F - 63.5 °F 90% 29.95 in 1.0 mi NNW 3.5 mph - N/A   Mist
6:35 AM 66.2 °F - 63.5 °F 91% 29.95 in 1.0 mi NE 3.5 mph - N/A   Mist
6:55 AM 66.2 °F - 63.5 °F 91% 29.96 in 1.0 mi NNE 3.5 mph - N/A   Mist
7:15 AM 66.4 °F - 63.5 °F 90% 29.96 in 1.2 mi North 3.5 mph - N/A   Scattered Clouds
7:35 AM 66.4 °F - 63.5 °F 90% 29.96 in 1.0 mi Calm Calm - N/A   Mostly Cloudy
7:55 AM 66.9 °F - 64.0 °F 90% 29.96 in 1.0 mi North 3.5 mph - N/A   Mostly Cloudy
8:15 AM 67.5 °F - 64.6 °F 90% 29.97 in 1.0 mi NNW 4.6 mph - N/A   Mostly Cloudy
8:35 AM 68.0 °F - 64.9 °F 90% 29.98 in 1.2 mi Calm Calm - N/A   Mostly Cloudy
8:55 AM 68.9 °F - 65.8 °F 90% 29.98 in 1.5 mi Calm Calm - N/A   Overcast
9:15 AM 69.6 °F - 66.4 °F 89% 29.98 in 2.5 mi Calm Calm - N/A   Overcast
9:35 AM 70.5 °F - 66.9 °F 88% 29.99 in 3.0 mi Calm Calm - N/A   Overcast
9:55 AM 71.6 °F - 66.9 °F 85% 29.99 in 4.0 mi NE 3.5 mph - N/A   Haze
10:15 AM 72.9 °F - 66.6 °F 81% 29.99 in 7.0 mi NNE 3.5 mph - N/A   Overcast
10:35 AM 73.9 °F - 67.3 °F 80% 30.00 in 7.0 mi Calm Calm - N/A   Overcast
10:55 AM 75.7 °F - 67.3 °F 75% 30.00 in 7.0 mi Calm Calm - N/A   Overcast
11:15 AM 76.8 °F - 66.9 °F 71% 30.00 in 10.0 mi North 4.6 mph - N/A   Overcast
11:35 AM 78.6 °F - 66.9 °F 67% 30.00 in 10.0 mi NNW 6.9 mph - N/A   Overcast
11:55 AM 81.0 °F 83.4 °F 67.1 °F 63% 30.00 in 10.0 mi North 5.8 mph - N/A   Mostly Cloudy
12:15 PM 81.0 °F 83.3 °F 66.7 °F 62% 30.00 in 10.0 mi NE 6.9 mph - N/A   Mostly Cloudy
12:35 PM 80.8 °F 83.2 °F 67.1 °F 63% 29.99 in 10.0 mi ENE 4.6 mph - N/A   Scattered Clouds
12:55 PM 82.4 °F 84.6 °F 66.2 °F 58% 29.99 in 10.0 mi ENE 5.8 mph - N/A   Clear
1:15 PM 83.5 °F 85.5 °F 66.0 °F 55% 29.99 in 10.0 mi NNE 4.6 mph - N/A   Mostly Cloudy
1:35 PM 82.2 °F 84.2 °F 65.7 °F 57% 29.99 in 10.0 mi North 3.5 mph - N/A   Overcast
1:55 PM 83.7 °F 85.8 °F 65.8 °F 55% 29.98 in 10.0 mi Calm Calm - N/A   Mostly Cloudy
2:15 PM 83.5 °F 85.5 °F 65.8 °F 55% 29.98 in 10.0 mi North 4.6 mph - N/A   Overcast
2:35 PM 83.8 °F 85.6 °F 65.3 °F 53% 29.98 in 10.0 mi Calm Calm - N/A   Overcast
3:15 PM 85.3 °F 87.1 °F 65.5 °F 51% 29.97 in 10.0 mi Calm Calm - N/A   Overcast
3:35 PM 85.1 °F 87.4 °F 66.0 °F 53% 29.98 in 10.0 mi NE 4.6 mph - N/A   Overcast
3:55 PM 85.5 °F 86.8 °F 64.6 °F 49% 29.98 in 10.0 mi Calm Calm - N/A   Mostly Cloudy
4:15 PM 86.5 °F 88.1 °F 64.6 °F 48% 29.97 in 10.0 mi Calm Calm - N/A   Mostly Cloudy
4:35 PM 84.6 °F 86.6 °F 65.8 °F 53% 29.98 in 10.0 mi NE 3.5 mph - N/A   Scattered Clouds
4:55 PM 86.7 °F 88.4 °F 64.6 °F 48% 29.98 in 10.0 mi East 4.6 mph - N/A   Mostly Cloudy
5:15 PM 86.9 °F 88.6 °F 64.8 °F 48% 29.98 in 10.0 mi North 4.6 mph - N/A   Mostly Cloudy
5:35 PM 87.3 °F 89.2 °F 65.1 °F 48% 29.98 in 10.0 mi ENE 4.6 mph - N/A   Scattered Clouds
5:55 PM 85.8 °F 87.4 °F 64.6 °F 49% 29.98 in 10.0 mi North 4.6 mph - N/A   Scattered Clouds
6:15 PM 86.9 °F 88.3 °F 64.4 °F 47% 29.98 in 10.0 mi NNE 4.6 mph - N/A   Mostly Cloudy
6:35 PM 86.0 °F 87.3 °F 64.4 °F 48% 29.98 in 10.0 mi North 3.5 mph - N/A   Scattered Clouds
6:55 PM 84.6 °F 86.1 °F 64.4 °F 51% 29.98 in 10.0 mi North 4.6 mph - N/A   Clear
7:15 PM 83.3 °F 85.1 °F 65.1 °F 54% 29.99 in 10.0 mi North 3.5 mph - N/A   Clear
7:35 PM 81.3 °F 83.3 °F 65.8 °F 59% 29.99 in 10.0 mi North 3.5 mph - N/A   Clear
7:55 PM 79.0 °F - 67.1 °F 67% 30.00 in 10.0 mi North 3.5 mph - N/A   Scattered Clouds
8:15 PM 77.2 °F - 66.7 °F 70% 30.00 in 10.0 mi North 4.6 mph - N/A   Clear
8:35 PM 76.5 °F - 66.2 °F 70% 30.02 in 10.0 mi North 5.8 mph - N/A   Clear
8:55 PM 75.4 °F - 66.2 °F 73% 30.02 in 10.0 mi North 4.6 mph - N/A   Clear
9:15 PM 74.7 °F - 65.8 °F 74% 30.03 in 10.0 mi North 3.5 mph - N/A   Clear
9:35 PM 73.9 °F - 66.2 °F 77% 30.04 in 10.0 mi North 3.5 mph - N/A   Clear
9:55 PM 72.7 °F - 65.7 °F 79% 30.04 in 10.0 mi NE 3.5 mph - N/A   Clear
10:15 PM 71.2 °F - 65.5 °F 82% 30.05 in 7.0 mi ENE 4.6 mph - N/A   Clear
10:35 PM 71.8 °F - 65.5 °F 80% 30.05 in 10.0 mi NNE 3.5 mph - N/A   Clear
10:55 PM 71.6 °F - 65.7 °F 81% 30.06 in 10.0 mi North 3.5 mph - N/A   Clear
11:55 PM 68.5 °F - 64.2 °F 86% 30.06 in 10.0 mi NNW 4.6 mph - N/A   Clear